Location: Conflandey
(47.7287°N, 6.0456°E)
Time: 03:00:47
(UTC+00:00)

ATLAS 3B R/B - Pass Details

Date: 24 October 2021
Orbit: 989 x 1206 km, 63.8° (Epoch: 25 November)

Event Time Altitude Azimuth Distance (km) Brightness Sun altitude
Rises 17:40:48 0° 259° (W) 3,741 7.6 -12.3°
Reaches altitude 10° 17:43:40 10° 269° (W) 2,817 6.4 -12.8°
Maximum altitude 17:49:33 32° 332° (NNW) 1,720 4.0 -13.8°
Drops below altitude 10° 17:55:44 10° 34° (NE) 2,955 4.7 -14.8°
Enters shadow 17:57:13 - 40° (NE) 3,425 5.0 -15.1°
